Weather History for PASD - January, 2014

Change the Weather History Date:

Wednesday, January 1, 2014

  Actual Average Record
Temperature  
Mean Temperature 38 °F -  
Max Temperature 41 °F 32 °F 44 °F (2005)
Min Temperature 35 °F 26 °F 14 °F (2000)
Degree Days  
Heating Degree Days 27    
Moisture  
Dew Point 33 °F    
Average Humidity 80    
Maximum Humidity 100    
Minimum Humidity 70    
Precipitation  
Precipitation 0.00 in - - ()
Sea Level Pressure  
Sea Level Pressure 29.51 in    
Wind  
Wind Speed 15 mph (West)    
Max Wind Speed 25 mph    
Max Gust Speed 29 mph    
Visibility 10 miles    
Events      
Averages and records for this station are not official NWS values.
T = Trace of Precipitation, MM = Missing Value Source: NWS Daily Summary

Daily Weather History Graph

Daily Weather History Graph

Search for Another Location

Airport or City:

Trip Planner

Search our weather history database for the weather conditions in past years. The results will help you decide how hot, cold, wet, or windy it might be!

Date:

Astronomy

Jan. 01, 2014 Rise Set
Actual Time 10:08 AM AKST 5:23 PM AKST
Civil Twilight 9:23 AM AKST 6:08 PM AKST
Nautical Twilight 8:35 AM AKST 6:56 PM AKST
Astronomical Twilight 7:50 AM AKST 7:41 PM AKST
Moon 9:55 AM AKST (1/1) 6:38 PM AKST (1/1)
Length of Visible Light 8h 45m
Length of Day
7h 14m
New Moon, 0% of the Moon is Illuminated
Jan 1
New Moon
Jan 7
First Quarter
Jan 15
Full
Jan 23
Last Quarter
Jan 30
New

Hourly Weather History & Observations

Time (AKST) Temp. Windchill Dew Point Humidity Pressure Visibility Wind Dir Wind Speed Gust Speed Precip Events Conditions
12:16 AM 37.4 °F 26.9 °F 35.6 °F 93% 29.14 in 10.0 mi West 20.7 mph 26.5 mph N/A   Overcast
12:56 AM 37.4 °F 25.9 °F 35.6 °F 93% 29.17 in 10.0 mi WNW 25.3 mph 28.8 mph N/A   Overcast
1:16 AM 37.4 °F 27.2 °F 35.6 °F 93% 29.19 in 10.0 mi West 19.6 mph 26.5 mph N/A   Mostly Cloudy
1:36 AM 37.4 °F 29.3 °F 35.6 °F 93% 29.19 in 10.0 mi West 12.7 mph - N/A   Overcast
1:56 AM 37.4 °F 27.8 °F 35.6 °F 93% 29.21 in 10.0 mi WNW 17.3 mph 26.5 mph N/A   Overcast
2:16 AM 37.4 °F 28.9 °F 35.6 °F 93% 29.21 in 10.0 mi West 13.8 mph - N/A   Overcast
2:36 AM 37.4 °F 27.8 °F 35.6 °F 93% 29.22 in 10.0 mi West 17.3 mph 21.9 mph N/A   Overcast
2:56 AM 35.6 °F 24.8 °F 33.8 °F 93% 29.23 in 7.0 mi WNW 19.6 mph 24.2 mph N/A   Overcast
3:16 AM 37.4 °F 28.2 °F 35.6 °F 93% 29.24 in 10.0 mi West 16.1 mph 24.2 mph N/A   Overcast
3:36 AM 35.6 °F 25.9 °F 35.6 °F 100% 29.26 in 10.0 mi West 16.1 mph 23.0 mph N/A   Overcast
4:16 AM 37.4 °F 27.5 °F 35.6 °F 93% 29.28 in 10.0 mi West 18.4 mph 24.2 mph N/A   Overcast
4:36 AM 37.4 °F 28.2 °F 35.6 °F 93% 29.29 in 10.0 mi WNW 16.1 mph 24.2 mph N/A   Overcast
4:56 AM 35.6 °F 25.2 °F 35.6 °F 100% 29.30 in 10.0 mi West 18.4 mph 26.5 mph N/A   Overcast
5:16 AM 37.4 °F 28.5 °F 35.6 °F 93% 29.31 in 10.0 mi WNW 15.0 mph 20.7 mph N/A   Overcast
5:36 AM 37.4 °F 27.8 °F 35.6 °F 93% 29.32 in 10.0 mi WNW 17.3 mph 20.7 mph N/A   Mostly Cloudy
5:56 AM 37.4 °F 30.3 °F 33.8 °F 87% 29.33 in 10.0 mi WNW 10.4 mph - N/A   Mostly Cloudy
6:16 AM 37.4 °F 28.2 °F 33.8 °F 87% 29.34 in 10.0 mi West 16.1 mph 20.7 mph N/A   Partly Cloudy
6:36 AM 37.4 °F 29.8 °F 33.8 °F 87% 29.35 in 10.0 mi WNW 11.5 mph 19.6 mph N/A   Clear
6:56 AM 37.4 °F 28.9 °F 32.0 °F 81% 29.35 in 10.0 mi WNW 13.8 mph 24.2 mph N/A   Scattered Clouds
7:16 AM 37.4 °F 27.8 °F 32.0 °F 81% 29.36 in 10.0 mi West 17.3 mph 23.0 mph N/A   Scattered Clouds
7:36 AM 37.4 °F 28.2 °F 33.8 °F 87% 29.38 in 10.0 mi West 16.1 mph 20.7 mph N/A   Scattered Clouds
7:56 AM 37.4 °F 29.8 °F 33.8 °F 87% 29.38 in 10.0 mi West 11.5 mph 20.7 mph N/A   Mostly Cloudy
8:16 AM 37.4 °F 28.9 °F 33.8 °F 87% 29.39 in 10.0 mi West 13.8 mph 20.7 mph N/A   Mostly Cloudy
8:36 AM 37.4 °F 30.3 °F 33.8 °F 87% 29.40 in 10.0 mi West 10.4 mph - N/A   Mostly Cloudy
8:56 AM 37.4 °F 29.8 °F 33.8 °F 87% 29.41 in 10.0 mi West 11.5 mph - N/A   Mostly Cloudy
9:16 AM 39.2 °F 31.2 °F 33.8 °F 81% 29.42 in 10.0 mi West 13.8 mph 17.3 mph N/A   Mostly Cloudy
9:36 AM 39.2 °F 31.2 °F 32.0 °F 75% 29.44 in 10.0 mi WNW 13.8 mph 17.3 mph N/A   Mostly Cloudy
9:56 AM 37.4 °F 29.3 °F 32.0 °F 81% 29.45 in 10.0 mi WNW 12.7 mph - N/A   Mostly Cloudy
10:16 AM 37.4 °F 29.3 °F 33.8 °F 87% 29.46 in 10.0 mi West 12.7 mph - N/A   Mostly Cloudy
10:36 AM 39.2 °F 30.8 °F 33.8 °F 81% 29.48 in 10.0 mi West 15.0 mph - N/A   Mostly Cloudy
10:56 AM 37.4 °F 28.5 °F 33.8 °F 87% 29.49 in 10.0 mi West 15.0 mph 21.9 mph N/A   Mostly Cloudy
11:16 AM 39.2 °F 31.6 °F 33.8 °F 81% 29.50 in 10.0 mi West 12.7 mph - N/A   Mostly Cloudy
11:36 AM 39.2 °F 31.6 °F 33.8 °F 81% 29.51 in 10.0 mi West 12.7 mph - N/A   Mostly Cloudy
11:56 AM 39.2 °F 32.0 °F 30.2 °F 70% 29.52 in 10.0 mi West 11.5 mph - N/A   Mostly Cloudy
12:16 PM 39.2 °F 30.8 °F 32.0 °F 75% 29.53 in 10.0 mi WSW 15.0 mph - N/A   Mostly Cloudy
12:36 PM 39.2 °F 31.2 °F 32.0 °F 75% 29.54 in 10.0 mi West 13.8 mph - N/A   Mostly Cloudy
12:56 PM 39.2 °F 33.0 °F 32.0 °F 75% 29.55 in 10.0 mi West 9.2 mph - N/A   Mostly Cloudy
1:16 PM 39.2 °F 32.0 °F 30.2 °F 70% 29.55 in 10.0 mi WSW 11.5 mph - N/A   Scattered Clouds
1:36 PM 39.2 °F 31.6 °F 33.8 °F 81% 29.57 in 10.0 mi West 12.7 mph - N/A   Scattered Clouds
1:56 PM 39.2 °F 32.5 °F 32.0 °F 75% 29.57 in 10.0 mi West 10.4 mph - N/A   Scattered Clouds
2:16 PM 39.2 °F 32.5 °F 32.0 °F 75% 29.58 in 10.0 mi West 10.4 mph 16.1 mph N/A   Scattered Clouds
2:36 PM 39.2 °F 30.5 °F 32.0 °F 75% 29.59 in 10.0 mi West 16.1 mph - N/A   Scattered Clouds
2:56 PM 39.2 °F 31.2 °F 30.2 °F 70% 29.60 in 10.0 mi West 13.8 mph 21.9 mph N/A   Scattered Clouds
3:16 PM 39.2 °F 31.2 °F 30.2 °F 70% 29.61 in 10.0 mi West 13.8 mph 20.7 mph N/A   Mostly Cloudy
3:36 PM 39.2 °F 31.6 °F 30.2 °F 70% 29.62 in 10.0 mi West 12.7 mph - N/A   Mostly Cloudy
3:56 PM 39.2 °F 31.6 °F 30.2 °F 70% 29.63 in 10.0 mi West 12.7 mph - N/A   Scattered Clouds
4:16 PM 39.2 °F 31.6 °F 30.2 °F 70% 29.64 in 10.0 mi West 12.7 mph - N/A   Scattered Clouds
4:36 PM 39.2 °F 33.0 °F 32.0 °F 75% 29.65 in 10.0 mi West 9.2 mph - N/A   Scattered Clouds
4:56 PM 39.2 °F 32.0 °F 30.2 °F 70% 29.66 in 10.0 mi WSW 11.5 mph - N/A   Scattered Clouds
5:16 PM 39.2 °F 31.6 °F 30.2 °F 70% 29.68 in 10.0 mi West 12.7 mph - N/A   Scattered Clouds
5:36 PM 39.2 °F 34.2 °F 30.2 °F 70% 29.69 in 10.0 mi West 6.9 mph - N/A   Scattered Clouds
5:56 PM 39.2 °F 32.5 °F 32.0 °F 75% 29.70 in 10.0 mi WSW 10.4 mph - N/A   Scattered Clouds
6:16 PM 39.2 °F 33.0 °F 30.2 °F 70% 29.70 in 10.0 mi SW 9.2 mph - N/A   Scattered Clouds
6:36 PM 39.2 °F 35.0 °F 30.2 °F 70% 29.71 in 10.0 mi West 5.8 mph - N/A   Scattered Clouds
6:56 PM 39.2 °F 33.6 °F 32.0 °F 75% 29.72 in 10.0 mi WSW 8.1 mph - N/A   Scattered Clouds
7:16 PM 39.2 °F 33.0 °F 30.2 °F 70% 29.72 in 10.0 mi West 9.2 mph 16.1 mph N/A   Scattered Clouds
7:36 PM 39.2 °F 35.0 °F 30.2 °F 70% 29.73 in 10.0 mi WSW 5.8 mph - N/A   Scattered Clouds
7:56 PM 39.2 °F 35.0 °F 30.2 °F 70% 29.74 in 10.0 mi SW 5.8 mph - N/A   Scattered Clouds
8:16 PM 39.2 °F 33.0 °F 32.0 °F 75% 29.75 in 10.0 mi SSW 9.2 mph - N/A   Scattered Clouds
8:36 PM 39.2 °F 35.9 °F 30.2 °F 70% 29.76 in 10.0 mi South 4.6 mph - N/A   Mostly Cloudy
8:56 PM 39.2 °F 34.2 °F 30.2 °F 70% 29.76 in 10.0 mi South 6.9 mph - N/A   Mostly Cloudy
9:16 PM 39.2 °F 34.2 °F 30.2 °F 70% 29.76 in 10.0 mi SW 6.9 mph - N/A   Partly Cloudy
9:36 PM 39.2 °F 35.9 °F 30.2 °F 70% 29.77 in 10.0 mi SW 4.6 mph - N/A   Clear
9:56 PM 37.4 °F 32.1 °F 30.2 °F 75% 29.77 in 10.0 mi SSW 6.9 mph - N/A   Partly Cloudy
10:16 PM 39.2 °F 33.0 °F 32.0 °F 75% 29.78 in 10.0 mi South 9.2 mph - N/A   Partly Cloudy
10:36 PM 39.2 °F 35.9 °F 33.8 °F 81% 29.78 in 10.0 mi South 4.6 mph - N/A   Scattered Clouds
11:16 PM 41.0 °F 36.4 °F 33.8 °F 76% 29.79 in 10.0 mi SW 6.9 mph - N/A   Mostly Cloudy
11:36 PM 41.0 °F 33.5 °F 33.8 °F 76% 29.80 in 10.0 mi SW 13.8 mph 24.2 mph N/A   Mostly Cloudy
11:56 PM 41.0 °F 33.9 °F 35.6 °F 81% 29.80 in 10.0 mi South 12.7 mph 16.1 mph N/A   Overcast